GSAT0211 (PRN E02)

Last updated on Mon Jul 22 2024 00:03:08 GMT+0000 (Coordinated Universal Time)

1 41549U 16030A 24202.52001922 .00000082 00000+0 00000+0 0 9992 2 41549 55.3506 240.8590 0003389 302.8773 57.1880 1.70473848 50792
UTC large
Height (km)
Speed (km/s)
/
Latitude / Longitude
Inclination (degrees)
Orbital Period (minutes)
Azimuth
Elevation
Range (km)
Doppler Factor

Next 0 passes for location: London (51.5072 / 0.1276)

Sorry there are no passes over London.